Volver al catálogo

CHINASAT 11

ActivoComunicacionesGEO
NORAD 39157·PAYLOAD·🇨🇳 China

Lanzado May 1, 2013 desde Xichang Satellite Launch Center

Loading…

TLE

ActualizadoSource: Space-Track

Época: Sep 14, 2026, 22:49 UTC

1 39157U 13020A   26257.95094755 -.00000298  00000-0  00000-0 0  9997
2 39157   0.0472 298.5288 0001163 171.7184 323.9380  1.00272486 48798

Sigue CHINASAT 11 en tiempo real con AllMySat

Download on the App Store